When you browse on this site, cookies collect data to enhance your experience and personalize the content and advertising you see.
Visit our Privacy Policy to learn more. By continuing to use the site, you agree to this use of cookies and data.
  • In Hungary
  • List of Countries
  • For 7 days
  • Water Temperature
  • Satellite Maps
  • Weather Map
  • News
  • Weather Widgets
  • user-avatar
    Login

    Hourly Weather Annovka

    Today, 19 November, Monday

    Time Temperature Precipitation Wind Pressure Humidity
    00:00 -3°C° 0 mm 2 mps 755 mmHg 47%
    01:00 -3°C° 0 mm 2 mps 755 mmHg 49%
    02:00 -1°C° 0 mm 1 mps 755 mmHg 51%
    03:00 -2°C° 0 mm 1 mps 755 mmHg 55%
    04:00 -2°C° 0 mm 1 mps 756 mmHg 58%
    05:00 -2°C° 0 mm 1 mps 756 mmHg 60%
    06:00 -2°C° 0 mm 1 mps 756 mmHg 62%
    07:00 -2°C° 0 mm 1 mps 756 mmHg 64%
    08:00 -1°C° 0 mm 1 mps 756 mmHg 65%
    09:00 -2°C° 0 mm 0 mps 757 mmHg 67%
    10:00 0°C° 0 mm 1 mps 757 mmHg 66%
    11:00 +1°C° 0 mm 1 mps 757 mmHg 65%
    12:00 +1°C° 0 mm 1 mps 757 mmHg 64%
    13:00 +1°C° 0 mm 1 mps 757 mmHg 67%
    14:00 +1°C° 0 mm 1 mps 757 mmHg 70%
    15:00 +1°C° 0 mm 1 mps 757 mmHg 73%
    16:00 +1°C° 0 mm 1 mps 757 mmHg 77%
    17:00 0°C° 0 mm 1 mps 757 mmHg 82%
    18:00 0°C° 0 mm 1 mps 757 mmHg 86%
    19:00 0°C° 0 mm 1 mps 757 mmHg 88%
    20:00 0°C° 0 mm 1 mps 757 mmHg 89%
    21:00 0°C° 0 mm 1 mps 757 mmHg 91%
    22:00 0°C° 0 mm 1 mps 757 mmHg 92%
    23:00 -3°C° 0 mm 2 mps 756 mmHg 93%

    Tomorrow, 20 November, Tuesday

    Time Temperature Precipitation Wind Pressure Humidity
    00:00 -3°C° 0 mm 2 mps 756 mmHg 94%
    01:00 -3°C° 0 mm 2 mps 756 mmHg 94%
    02:00 -3°C° 0 mm 2 mps 756 mmHg 95%
    03:00 -1°C° 0 mm 1 mps 756 mmHg 95%
    04:00 -3°C° 0 mm 2 mps 756 mmHg 96%
    05:00 -3°C° 0 mm 2 mps 756 mmHg 96%
    06:00 -3°C° 0 mm 2 mps 756 mmHg 96%
    07:00 -2°C° 0 mm 2 mps 756 mmHg 96%
    08:00 -2°C° 0 mm 2 mps 756 mmHg 95%
    09:00 -2°C° 0 mm 2 mps 756 mmHg 95%
    10:00 -1°C° 0 mm 2 mps 755 mmHg 91%
    11:00 -1°C° 0 mm 2 mps 755 mmHg 88%
    12:00 +1°C° 0 mm 2 mps 755 mmHg 85%
    13:00 +1°C° 0 mm 2 mps 755 mmHg 85%
    14:00 +1°C° 0 mm 2 mps 755 mmHg 85%
    15:00 +1°C° 0 mm 2 mps 754 mmHg 85%
    16:00 -1°C° 0 mm 2 mps 754 mmHg 87%
    17:00 -1°C° 0 mm 2 mps 754 mmHg 89%
    18:00 -1°C° 0 mm 2 mps 754 mmHg 91%
    19:00 -2°C° 0 mm 2 mps 754 mmHg 91%
    20:00 -2°C° 0 mm 2 mps 754 mmHg 90%
    21:00 -2°C° 0 mm 2 mps 754 mmHg 89%
    22:00 -2°C° 0 mm 2 mps 754 mmHg 89%
    23:00 -3°C° 0 mm 2 mps 754 mmHg 89%

    Day after tomorrow, 21 November, Wednesday

    Time Temperature Precipitation Wind Pressure Humidity
    00:00 -3°C° 0 mm 2 mps 754 mmHg 88%
    01:00 -3°C° 0 mm 2 mps 753 mmHg 87%
    02:00 -3°C° 0 mm 2 mps 753 mmHg 87%
    03:00 -5°C° 0 mm 3 mps 753 mmHg 86%
    04:00 -5°C° 0 mm 3 mps 753 mmHg 86%
    05:00 -5°C° 0 mm 3 mps 752 mmHg 86%
    06:00 -5°C° 0 mm 3 mps 752 mmHg 86%
    07:00 -5°C° 0 mm 3 mps 752 mmHg 84%
    08:00 -5°C° 0 mm 4 mps 752 mmHg 82%
    09:00 -4°C° 0 mm 4 mps 752 mmHg 80%
    10:00 -4°C° 0 mm 4 mps 752 mmHg 75%
    11:00 -3°C° 0 mm 4 mps 751 mmHg 71%
    12:00 -3°C° 0 mm 4 mps 751 mmHg 66%
    13:00 -3°C° 0 mm 4 mps 751 mmHg 67%
    14:00 -3°C° 0 mm 4 mps 751 mmHg 69%
    15:00 -2°C° 0 mm 4 mps 751 mmHg 70%
    16:00 -3°C° 0 mm 4 mps 751 mmHg 73%
    17:00 -3°C° 0 mm 4 mps 751 mmHg 77%
    18:00 -3°C° 0 mm 4 mps 751 mmHg 81%
    19:00 -3°C° 0 mm 4 mps 751 mmHg 78%
    20:00 -3°C° 0 mm 4 mps 751 mmHg 75%
    21:00 -3°C° 0 mm 4 mps 751 mmHg 73%
    22:00 -2°C° 0 mm 3 mps 751 mmHg 71%
    23:00 -2°C° 0 mm 3 mps 751 mmHg 69%

    22 November, Thursday

    Time Temperature Precipitation Wind Pressure Humidity
    00:00 -4°C° 0 mm 3 mps 751 mmHg 68%
    01:00 -4°C° 0 mm 3 mps 751 mmHg 67%
    02:00 -4°C° 0 mm 3 mps 751 mmHg 66%
    03:00 -4°C° 0 mm 3 mps 751 mmHg 65%
    04:00 -4°C° 0 mm 3 mps 751 mmHg 68%
    05:00 -5°C° 0 mm 4 mps 750 mmHg 71%
    06:00 -5°C° 0 mm 4 mps 750 mmHg 74%
    07:00 -5°C° 0 mm 4 mps 750 mmHg 75%
    08:00 -5°C° 0 mm 4 mps 750 mmHg 76%
    09:00 -5°C° 0 mm 4 mps 750 mmHg 76%
    10:00 -6°C° 0 mm 5 mps 750 mmHg 73%
    11:00 -5°C° 0 mm 5 mps 749 mmHg 70%
    12:00 -5°C° 0 mm 6 mps 749 mmHg 67%
    13:00 -5°C° 0 mm 6 mps 748 mmHg 68%
    14:00 -5°C° 0 mm 6 mps 748 mmHg 70%
    15:00 -5°C° 0 mm 6 mps 747 mmHg 71%
    16:00 -5°C° 0 mm 6 mps 747 mmHg 72%
    17:00 -5°C° 0 mm 6 mps 746 mmHg 73%
    18:00 -6°C° 0 mm 7 mps 746 mmHg 75%
    19:00 -6°C° 0 mm 7 mps 746 mmHg 75%
    20:00 -4°C° 0 mm 7 mps 746 mmHg 76%
    21:00 -4°C° 0 mm 7 mps 746 mmHg 76%
    22:00 -4°C° 0 mm 7 mps 746 mmHg 77%
    23:00 -4°C° 0 mm 6 mps 746 mmHg 78%

    23 November, Friday

    Time Temperature Precipitation Wind Pressure Humidity
    00:00 -4°C° 0 mm 6 mps 746 mmHg 79%
    01:00 -3°C° 0 mm 6 mps 746 mmHg 78%
    02:00 -3°C° 0 mm 6 mps 747 mmHg 77%
    03:00 -3°C° 0 mm 6 mps 747 mmHg 77%
    04:00 -4°C° 0 mm 6 mps 748 mmHg 74%
    05:00 -5°C° 0 mm 6 mps 749 mmHg 71%
    06:00 -5°C° 0 mm 6 mps 750 mmHg 68%
    07:00 -5°C° 0 mm 6 mps 751 mmHg 67%
    08:00 -6°C° 0 mm 6 mps 752 mmHg 66%
    09:00 -6°C° 0 mm 6 mps 753 mmHg 65%
    10:00 -6°C° 0 mm 6 mps 754 mmHg 61%
    11:00 -5°C° 0 mm 6 mps 755 mmHg 58%
    12:00 -5°C° 0 mm 5 mps 755 mmHg 54%
    13:00 -5°C° 0 mm 5 mps 756 mmHg 54%
    14:00 -5°C° 0 mm 5 mps 756 mmHg 53%
    15:00 -4°C° 0 mm 4 mps 757 mmHg 52%
    16:00 -5°C° 0 mm 4 mps 757 mmHg 55%
    17:00 -5°C° 0 mm 3 mps 757 mmHg 57%
    18:00 -5°C° 0 mm 2 mps 758 mmHg 60%
    19:00 -5°C° 0 mm 2 mps 758 mmHg 62%
    20:00 -5°C° 0 mm 2 mps 758 mmHg 63%
    21:00 -5°C° 0 mm 2 mps 759 mmHg 65%
    22:00 -5°C° 0 mm 2 mps 759 mmHg 67%
    23:00 -7°C° 0 mm 3 mps 759 mmHg 69%

    24 November, Saturday

    Time Temperature Precipitation Wind Pressure Humidity
    00:00 -7°C° 0 mm 3 mps 759 mmHg 72%
    01:00 -7°C° 0 mm 3 mps 759 mmHg 73%
    02:00 -8°C° 0 mm 4 mps 758 mmHg 74%
    03:00 -8°C° 0 mm 4 mps 758 mmHg 76%
    04:00 -8°C° 0 mm 4 mps 758 mmHg 77%
    05:00 -8°C° 0 mm 4 mps 758 mmHg 78%
    06:00 -8°C° 0 mm 5 mps 757 mmHg 79%
    07:00 -7°C° 0 mm 5 mps 757 mmHg 79%
    08:00 -7°C° 0 mm 5 mps 757 mmHg 79%
    09:00 -8°C° 0 mm 6 mps 756 mmHg 79%
    10:00 -6°C° 0 mm 6 mps 756 mmHg 76%
    11:00 -6°C° 0 mm 7 mps 756 mmHg 74%
    12:00 -4°C° 0 mm 7 mps 755 mmHg 71%
    13:00 -4°C° 0 mm 7 mps 755 mmHg 72%
    14:00 -4°C° 0 mm 7 mps 755 mmHg 72%
    15:00 -4°C° 0 mm 7 mps 754 mmHg 73%
    16:00 -4°C° 0 mm 7 mps 754 mmHg 75%
    17:00 -5°C° 0 mm 6 mps 754 mmHg 77%
    18:00 -5°C° 0 mm 6 mps 754 mmHg 79%
    19:00 -5°C° 0 mm 6 mps 753 mmHg 81%
    20:00 -6°C° 0 mm 5 mps 753 mmHg 83%
    21:00 -6°C° 0 mm 5 mps 753 mmHg 84%
    22:00 -6°C° 0 mm 5 mps 753 mmHg 86%
    23:00 -6°C° 0 mm 5 mps 752 mmHg 87%
    Show more